Location: Arcones
(41.1182°N, 3.7238°W)
Time: 19:55:53
(UTC+00:00)

Cosmos 2058 Rocket - Pass Details

Date: 22 March 2026
Orbit: 604 x 632 km, 82.5° (Epoch: 21 April)

Event Time Altitude Azimuth Distance (km) Brightness Sun altitude
Rises 05:38:34 0° 187° (S) 2,894 6.4 -7.7°
Reaches altitude 10° 05:40:46 10° 187° (S) 1,996 5.5 -7.3°
Maximum altitude 05:45:13 88° 281° (WNW) 636 3.1 -6.5°
Drops below altitude 10° 05:49:43 10° 8° (N) 2,022 5.9 -5.6°
Sets 05:51:58 0° 8° (N) 2,935 6.7 -5.2°
